{"data":{"norad_id":54174,"epoch":"2026-09-20T09:16:18.672672Z","epoch_age_seconds":99640,"freshness":"FRESH","line1":"1 54174U 22141T   26263.38632723  .00000843  00000+0  35070-4 0  9997","line2":"2 54174  53.1601 142.3479 0001325  83.6562 276.4592 15.35396182216197","mean_motion":15.35396182,"eccentricity":0.0001325,"inclination_deg":53.1601,"raan_deg":142.3479,"arg_perigee_deg":83.6562,"mean_anomaly_deg":276.4592,"bstar":3.507e-5,"rev_number":21619,"period_min":93.786868619425,"perigee_km":458.83795912016,"apogee_km":460.64999757942,"semimajor_km":6837.8809783498,"source":"CELESTRAK","updated_at":"2026-09-21T09:00:33.091047Z"}}